#timestamp,LO_Frequency,Hit,StdDev 
1620356415.5,286046997.5,N
1620356435.4,286046995.3,N
1620356455.2,286046995.6,N
1620356475.0,286046997.9,N
1620356475.9,286046997.9,N
1620356495.8,286046997.4,N
1620356515.6,286046997.4,N
1620356535.4,286046995.6,N
1620356555.3,286046997.6,N
1620356575.1,286046997.0,N
1620356595.9,286046996.6,N
1620356615.7,286046999.0,N
1620356635.5,286046996.8,N
1620356655.4,286046995.7,N
1620356675.2,286046994.2,Y
1620356695.0,286046997.3,P
1620356695.9,286046997.3,P
1620356715.8,286046996.9,P
1620356735.6,286046997.2,Y
1620356755.5,286047001.0,P
1620356775.3,286047000.6,N
1620356795.1,286047001.8,N
1620356815.9,286047004.4,N
1620356835.7,286047001.4,N
1620356855.5,286047003.2,N
1620356875.4,286047006.9,Y
1620356895.2,286047003.6,P
1620356915.1,286047005.5,P
1620356916.0,286047005.5,P
1620356935.8,286047005.2,Y
1620356955.6,286047002.0,P
1620356975.5,286047002.9,N
1620356995.3,286047006.5,P
1620357015.2,286047006.5,Y
1620357035.9,286047000.5,P
1620357055.7,286047002.8,N
1620357075.6,286047002.6,N
1620357095.4,286047000.5,N
1620357115.2,286047000.4,N
1620357135.1,286047000.7,N
1620357136.0,286047000.7,N
1620357155.8,286046998.3,N
1620357175.7,286046998.3,N
1620357195.5,286046998.2,N
1620357215.3,286047001.1,N
1620357235.2,286046998.8,N
1620357255.9,286046998.1,N
1620357275.7,286047000.5,N
1620357295.6,286046998.2,N
1620357315.4,286047000.4,N
1620357335.2,286046999.7,N
1620357355.1,286047000.4,N
1620357356.0,286047000.4,N
1620357375.8,286046998.3,N
1620357395.7,286046995.4,N
1620357415.5,286046996.9,N
1620357435.3,286046998.0,N
1620357455.2,286046996.5,N
1620357475.0,286046998.5,N
1620357475.9,286046998.5,N
1620357495.8,286046999.7,N
1620357515.6,286046999.7,N
1620357535.4,286047000.7,N
1620357555.3,286047001.0,N
1620357575.1,286046999.7,N
1620357595.9,286047002.7,N
1620357615.7,286047002.0,N
1620357635.5,286047004.3,N
1620357655.4,286047001.0,N
1620357675.2,286047000.4,N
1620357695.1,286047001.8,N
1620357696.0,286047001.8,N
1620357715.8,286047003.6,N
1620357735.6,286047005.4,N
1620357755.5,286047003.3,N
1620357775.3,286047000.0,N
1620357795.2,286047001.1,N
1620357815.9,286047002.4,N
1620357835.7,286047002.3,N
1620357855.6,286047001.5,N
1620357875.4,286047004.0,N
1620357895.3,286047003.5,N
1620357915.1,286047004.4,N
1620357916.0,286047004.4,N
1620357935.8,286047003.5,N
1620357955.7,286047002.9,N
1620357975.5,286047001.3,N
1620357995.3,286047004.3,N
1620358015.2,286047003.7,N
1620358035.0,286047003.8,N
1620358035.9,286047003.8,N
1620358055.8,286047001.8,N
1620358075.6,286047003.7,N
1620358095.4,286047001.9,N
1620358115.3,286047003.5,N
1620358135.1,286047004.2,Y
1620358155.9,286047000.5,P
1620358175.7,286047002.3,N
1620358195.5,286047000.2,N
1620358215.4,286047000.1,N
1620358235.2,286047001.6,N
1620358255.1,286046998.3,N
1620358256.0,286046998.3,N
1620358275.8,286046998.4,N
1620358295.6,286046996.7,N
1620358315.5,286046997.0,N
1620358335.3,286046998.9,N
1620358355.1,286046998.6,N
1620358375.9,286047000.0,N
1620358395.7,286046998.1,N
1620358415.6,286046998.3,N
1620358435.4,286047002.6,N
1620358455.2,286047001.4,N
1620358475.1,286047001.3,N
1620358476.0,286047001.3,N
1620358495.8,286047002.0,N
1620358515.6,286047002.4,N
1620358535.5,286047000.7,N
1620358555.3,286046998.4,N
1620358575.2,286046996.2,N
1620358595.9,286046995.0,N
1620358615.7,286046996.5,N
1620358635.6,286046999.5,N
1620358655.4,286047000.5,N
1620358675.2,286046999.8,N
1620358695.1,286047001.4,N
1620358696.0,286047001.4,N
1620358715.8,286047001.6,N
1620358735.7,286047002.0,N
1620358755.5,286047004.3,N
1620358775.3,286046999.8,N
1620358795.2,286047002.2,N
1620358815.0,286047001.8,N
1620358815.9,286047001.8,N
1620358835.8,286046999.8,N
1620358855.6,286046999.8,N
1620358875.4,286047000.9,N
1620358895.3,286047000.2,N
1620358915.1,286047002.3,N
1620358935.8,286046999.9,N
1620358955.7,286047000.2,N
1620358975.5,286047002.6,N
1620358995.4,286047004.4,N
1620359015.2,286047004.4,N
1620359035.0,286047003.8,N
1620359035.9,286047003.8,N
1620359055.8,286046999.7,N
1620359075.6,286047001.9,N
1620359095.5,286047002.1,N
1620359115.3,286047001.3,N
1620359135.1,286047002.8,N
1620359155.9,286046998.8,N
1620359175.7,286046997.7,N
1620359195.6,286046997.5,N
1620359215.4,286046997.7,N
1620359235.2,286046999.3,N
1620359255.1,286047000.0,N
1620359256.0,286047000.0,N
1620359275.8,286047001.9,N
1620359295.7,286046999.9,N
1620359315.5,286047000.0,N
1620359335.3,286047001.0,N
1620359355.2,286046998.6,N
1620359375.0,286047000.3,N
1620359375.9,286047000.3,N
1620359395.7,286046999.6,N
1620359415.6,286047001.2,N
1620359435.4,286047002.8,N
1620359455.3,286047000.0,N
1620359475.1,286047000.7,N
1620359476.0,286047000.7,N
1620359495.8,286046999.9,N
1620359515.7,286047003.3,N
1620359535.5,286047002.2,N
1620359555.3,286047000.4,N
1620359575.2,286046999.7,N
1620359595.0,286047002.0,N
1620359595.9,286047002.0,N
1620359615.8,286047001.9,N
1620359635.6,286047002.2,N
1620359655.4,286047003.3,N
1620359675.3,286046999.8,N
1620359695.1,286046998.6,N
1620359715.9,286047000.2,N
1620359735.7,286047002.3,N
1620359755.5,286047000.6,N
1620359775.4,286047002.4,N
1620359795.2,286047002.5,N
1620359815.0,286047001.2,N
1620359815.9,286047001.2,N
1620359835.8,286047004.0,Y
1620359855.6,286046998.2,P
1620359875.5,286047000.4,N
1620359895.3,286047002.6,N
1620359915.1,286047003.8,N
1620359935.9,286047002.8,N
1620359955.7,286046998.7,N
1620359975.5,286046997.3,N
1620359995.4,286046995.0,N
